Year,Month,Day,Hour,Minute,Value (Times are PST for temperature in C)
2017,09,06,00,00,24.20
2017,09,06,00,01,24.30
2017,09,06,00,02,24.30
2017,09,06,00,03,24.30
2017,09,06,00,04,24.30
2017,09,06,00,05,24.30
2017,09,06,00,06,24.30
2017,09,06,00,07,24.30
2017,09,06,00,08,24.30
2017,09,06,00,09,24.30
2017,09,06,00,10,24.30
2017,09,06,00,11,24.30
2017,09,06,00,12,24.40
2017,09,06,00,13,24.40
2017,09,06,00,14,24.40
2017,09,06,00,15,24.40
2017,09,06,00,16,24.40
2017,09,06,00,17,24.40
2017,09,06,00,18,24.40
2017,09,06,00,19,24.40
2017,09,06,00,20,24.40
2017,09,06,00,21,24.40
2017,09,06,00,22,24.40
2017,09,06,00,23,24.40
2017,09,06,00,24,24.30
2017,09,06,00,25,24.30
2017,09,06,00,26,24.30
2017,09,06,00,27,24.40
2017,09,06,00,28,24.40
2017,09,06,00,29,24.40
2017,09,06,00,30,24.40
2017,09,06,00,31,24.40
2017,09,06,00,32,24.40
2017,09,06,00,33,24.40
2017,09,06,00,34,24.40
2017,09,06,00,35,24.50
2017,09,06,00,36,24.50
2017,09,06,00,37,24.40
2017,09,06,00,38,24.40
2017,09,06,00,39,24.40
2017,09,06,00,40,24.40
2017,09,06,00,41,24.40
2017,09,06,00,42,24.40
2017,09,06,00,43,24.40
2017,09,06,00,44,24.40
2017,09,06,00,45,24.40
2017,09,06,00,46,24.40
2017,09,06,00,47,24.40
2017,09,06,00,48,24.40
2017,09,06,00,49,24.40
2017,09,06,00,50,24.40
2017,09,06,00,51,24.40
2017,09,06,00,52,24.40
2017,09,06,00,53,24.40
2017,09,06,00,54,24.40
2017,09,06,00,55,24.40
2017,09,06,00,56,24.40
2017,09,06,00,57,24.40
2017,09,06,00,58,24.40
2017,09,06,00,59,24.40
2017,09,06,01,00,24.40
2017,09,06,01,01,24.40
2017,09,06,01,02,24.50
2017,09,06,01,03,24.50
2017,09,06,01,04,24.50
2017,09,06,01,05,24.50
2017,09,06,01,06,24.50
2017,09,06,01,07,24.50
2017,09,06,01,08,24.50
2017,09,06,01,09,24.50
2017,09,06,01,10,24.50
2017,09,06,01,11,24.50
2017,09,06,01,12,24.50
2017,09,06,01,13,24.50
2017,09,06,01,14,24.50
2017,09,06,01,15,24.50
2017,09,06,01,16,24.50
2017,09,06,01,17,24.50
2017,09,06,01,18,24.50
2017,09,06,01,19,24.50
2017,09,06,01,20,24.50
2017,09,06,01,21,24.50
2017,09,06,01,22,24.50
2017,09,06,01,23,24.50
2017,09,06,01,24,24.50
2017,09,06,01,25,24.50
2017,09,06,01,26,24.50
2017,09,06,01,27,24.50
2017,09,06,01,28,24.40
2017,09,06,01,29,24.40
2017,09,06,01,30,24.40
2017,09,06,01,31,24.40
2017,09,06,01,32,24.40
2017,09,06,01,33,24.40
2017,09,06,01,34,24.40
2017,09,06,01,35,24.40
2017,09,06,01,36,24.40
2017,09,06,01,37,24.30
2017,09,06,01,38,24.30
2017,09,06,01,39,24.30
2017,09,06,01,40,24.30
2017,09,06,01,41,24.30
2017,09,06,01,42,24.30
2017,09,06,01,43,24.30
2017,09,06,01,44,24.30
2017,09,06,01,45,24.30
2017,09,06,01,46,24.30
2017,09,06,01,47,24.30
2017,09,06,01,48,24.30
2017,09,06,01,49,24.30
2017,09,06,01,50,24.30
2017,09,06,01,51,24.30
2017,09,06,01,52,24.30
2017,09,06,01,53,24.30
2017,09,06,01,54,24.30
2017,09,06,01,55,24.30
2017,09,06,01,56,24.30
2017,09,06,01,57,24.30
2017,09,06,01,58,24.30
2017,09,06,01,59,24.30
2017,09,06,02,00,24.30
2017,09,06,02,01,24.30
2017,09,06,02,02,24.30
2017,09,06,02,03,24.40
2017,09,06,02,04,24.40
2017,09,06,02,05,24.40
2017,09,06,02,06,24.40
2017,09,06,02,07,24.40
2017,09,06,02,08,24.40
2017,09,06,02,09,24.40
2017,09,06,02,10,24.50
2017,09,06,02,11,24.50
2017,09,06,02,12,24.50
2017,09,06,02,13,24.50
2017,09,06,02,14,24.50
2017,09,06,02,15,24.50
2017,09,06,02,16,24.50
2017,09,06,02,17,24.50
2017,09,06,02,18,24.50
2017,09,06,02,19,24.50
2017,09,06,02,20,24.50
2017,09,06,02,21,24.50
2017,09,06,02,22,24.60
2017,09,06,02,23,24.60
2017,09,06,02,24,24.60
2017,09,06,02,25,24.60
2017,09,06,02,26,24.70
2017,09,06,02,27,24.70
2017,09,06,02,28,24.70
2017,09,06,02,29,24.70
2017,09,06,02,30,24.70
2017,09,06,02,31,24.70
2017,09,06,02,32,24.70
2017,09,06,02,33,24.70
2017,09,06,02,34,24.70
2017,09,06,02,35,24.70
2017,09,06,02,36,24.70
2017,09,06,02,37,24.80
2017,09,06,02,38,24.80
2017,09,06,02,39,24.80
2017,09,06,02,40,24.80
2017,09,06,02,41,24.80
2017,09,06,02,42,24.80
2017,09,06,02,43,24.70
2017,09,06,02,44,24.70
2017,09,06,02,45,24.70
2017,09,06,02,46,24.70
2017,09,06,02,47,24.70
2017,09,06,02,48,24.60
2017,09,06,02,49,24.60
2017,09,06,02,50,24.60
2017,09,06,02,51,24.50
2017,09,06,02,52,24.50
2017,09,06,02,53,24.40
2017,09,06,02,54,24.40
2017,09,06,02,55,24.40
2017,09,06,02,56,24.30
2017,09,06,02,57,24.30
2017,09,06,02,58,24.20
2017,09,06,02,59,24.20
2017,09,06,03,00,24.10
2017,09,06,03,01,24.10
2017,09,06,03,02,24.10
2017,09,06,03,03,24.00
2017,09,06,03,04,24.00
2017,09,06,03,05,24.00
2017,09,06,03,06,23.90
2017,09,06,03,07,23.90
2017,09,06,03,08,23.90
2017,09,06,03,09,23.90
2017,09,06,03,10,23.80
2017,09,06,03,11,23.80
2017,09,06,03,12,23.80
2017,09,06,03,13,23.80
2017,09,06,03,14,23.70
2017,09,06,03,15,23.70
2017,09,06,03,16,23.70
2017,09,06,03,17,23.70
2017,09,06,03,18,23.70
2017,09,06,03,19,23.60
2017,09,06,03,20,23.60
2017,09,06,03,21,23.60
2017,09,06,03,22,23.60
2017,09,06,03,23,23.60
2017,09,06,03,24,23.60
2017,09,06,03,25,23.50
2017,09,06,03,26,23.50
2017,09,06,03,27,23.40
2017,09,06,03,28,23.40
2017,09,06,03,29,23.40
2017,09,06,03,30,23.40
2017,09,06,03,31,23.40
2017,09,06,03,32,23.40
2017,09,06,03,33,23.40
2017,09,06,03,34,23.40
2017,09,06,03,35,23.40
2017,09,06,03,36,23.40
2017,09,06,03,37,23.40
2017,09,06,03,38,23.40
2017,09,06,03,39,23.40
2017,09,06,03,40,23.40
2017,09,06,03,41,23.40
2017,09,06,03,42,23.50
2017,09,06,03,43,23.50
2017,09,06,03,44,23.50
2017,09,06,03,45,23.50
2017,09,06,03,46,23.60
2017,09,06,03,47,23.60
2017,09,06,03,48,23.60
2017,09,06,03,49,23.60
2017,09,06,03,50,23.60
2017,09,06,03,51,23.60
2017,09,06,03,52,23.60
2017,09,06,03,53,23.60
2017,09,06,03,54,23.60
2017,09,06,03,55,23.60
2017,09,06,03,56,23.50
2017,09,06,03,57,23.50
2017,09,06,03,58,23.50
2017,09,06,03,59,23.50
2017,09,06,04,00,23.50
2017,09,06,04,01,23.50
2017,09,06,04,02,23.50
2017,09,06,04,03,23.50
2017,09,06,04,04,23.40
2017,09,06,04,05,23.40
2017,09,06,04,06,23.40
2017,09,06,04,07,23.40
2017,09,06,04,08,23.40
2017,09,06,04,09,23.40
2017,09,06,04,10,23.40
2017,09,06,04,11,23.40
2017,09,06,04,12,23.40
2017,09,06,04,13,23.40
2017,09,06,04,14,23.40
2017,09,06,04,15,23.40
2017,09,06,04,16,23.40
2017,09,06,04,17,23.40
2017,09,06,04,18,23.50
2017,09,06,04,19,23.50
2017,09,06,04,20,23.60
2017,09,06,04,21,23.60
2017,09,06,04,22,23.70
2017,09,06,04,23,23.70
2017,09,06,04,24,23.70
2017,09,06,04,25,23.80
2017,09,06,04,26,23.80
2017,09,06,04,27,23.80
2017,09,06,04,28,23.80
2017,09,06,04,29,23.80
2017,09,06,04,30,23.80
2017,09,06,04,31,23.80
2017,09,06,04,32,23.80
2017,09,06,04,33,23.80
2017,09,06,04,34,23.80
2017,09,06,04,35,23.80
2017,09,06,04,36,23.80
2017,09,06,04,37,23.80
2017,09,06,04,38,23.80
2017,09,06,04,39,23.80
2017,09,06,04,40,23.80
2017,09,06,04,41,23.80
2017,09,06,04,42,23.80
2017,09,06,04,43,23.80
2017,09,06,04,44,23.80
2017,09,06,04,45,23.80
2017,09,06,04,46,23.80
2017,09,06,04,47,23.80
2017,09,06,04,48,23.70
2017,09,06,04,49,23.70
2017,09,06,04,50,23.70
2017,09,06,04,51,23.70
2017,09,06,04,52,23.70
2017,09,06,04,53,23.70
2017,09,06,04,54,23.70
2017,09,06,04,55,23.70
2017,09,06,04,56,23.70
2017,09,06,04,57,23.70
2017,09,06,04,58,23.70
2017,09,06,04,59,23.70
2017,09,06,05,00,23.70
2017,09,06,05,01,23.70
2017,09,06,05,02,23.70
2017,09,06,05,03,23.70
2017,09,06,05,04,23.70
2017,09,06,05,05,23.80
2017,09,06,05,06,23.70
2017,09,06,05,07,23.70
2017,09,06,05,08,23.70
2017,09,06,05,09,23.70
2017,09,06,05,10,23.70
2017,09,06,05,11,23.70
2017,09,06,05,12,23.70
2017,09,06,05,13,23.70
2017,09,06,05,14,23.70
2017,09,06,05,15,23.70
2017,09,06,05,16,23.70
2017,09,06,05,17,23.70
2017,09,06,05,18,23.70
2017,09,06,05,19,23.70
2017,09,06,05,20,23.70
2017,09,06,05,21,23.70
2017,09,06,05,22,23.60
2017,09,06,05,23,23.60
2017,09,06,05,24,23.60
2017,09,06,05,25,23.60
2017,09,06,05,26,23.60
2017,09,06,05,27,23.60
2017,09,06,05,28,23.50
2017,09,06,05,29,23.50
2017,09,06,05,30,23.50
2017,09,06,05,31,23.60
2017,09,06,05,32,23.60
2017,09,06,05,33,23.60
2017,09,06,05,34,23.60
2017,09,06,05,35,23.50
2017,09,06,05,36,23.50
2017,09,06,05,37,23.50
2017,09,06,05,38,23.40
2017,09,06,05,39,23.40
2017,09,06,05,40,23.40
2017,09,06,05,41,23.30
2017,09,06,05,42,23.30
2017,09,06,05,43,23.20
2017,09,06,05,44,23.20
2017,09,06,05,45,23.10
2017,09,06,05,46,23.00
2017,09,06,05,47,23.00
2017,09,06,05,48,22.90
2017,09,06,05,49,22.90
2017,09,06,05,50,22.80
2017,09,06,05,51,22.80
2017,09,06,05,52,22.70
2017,09,06,05,53,22.70
2017,09,06,05,54,22.60
2017,09,06,05,55,22.60
2017,09,06,05,56,22.60
2017,09,06,05,57,22.50
2017,09,06,05,58,22.50
2017,09,06,05,59,22.60
2017,09,06,06,00,22.60
2017,09,06,06,01,22.60
2017,09,06,06,02,22.60
2017,09,06,06,03,22.60
2017,09,06,06,04,22.60
2017,09,06,06,05,22.60
2017,09,06,06,06,22.60
2017,09,06,06,07,22.60
2017,09,06,06,08,22.60
2017,09,06,06,09,22.60
2017,09,06,06,10,22.60
2017,09,06,06,11,22.60
2017,09,06,06,12,22.70
2017,09,06,06,13,22.70
2017,09,06,06,14,22.80
2017,09,06,06,15,22.80
2017,09,06,06,16,22.90
2017,09,06,06,17,22.90
2017,09,06,06,18,23.00
2017,09,06,06,19,23.10
2017,09,06,06,20,23.10
2017,09,06,06,21,23.10
2017,09,06,06,22,23.20
2017,09,06,06,23,23.20
2017,09,06,06,24,23.20
2017,09,06,06,25,23.20
2017,09,06,06,26,23.20
2017,09,06,06,27,23.30
2017,09,06,06,28,23.30
2017,09,06,06,29,23.30
2017,09,06,06,30,23.30
2017,09,06,06,31,23.30
2017,09,06,06,32,23.30
2017,09,06,06,33,23.30
2017,09,06,06,34,23.30
2017,09,06,06,35,23.30
2017,09,06,06,36,23.30
2017,09,06,06,37,23.30
2017,09,06,06,38,23.40
2017,09,06,06,39,23.40
2017,09,06,06,40,23.40
2017,09,06,06,41,23.40
2017,09,06,06,42,23.40
2017,09,06,06,43,23.40
2017,09,06,06,44,23.40
2017,09,06,06,45,23.40
2017,09,06,06,46,23.40
2017,09,06,06,47,23.40
2017,09,06,06,48,23.40
2017,09,06,06,49,23.40
2017,09,06,06,50,23.40
2017,09,06,06,51,23.40
2017,09,06,06,52,23.30
2017,09,06,06,53,23.30
2017,09,06,06,54,23.30
2017,09,06,06,55,23.20
2017,09,06,06,56,23.20
2017,09,06,06,57,23.10
2017,09,06,06,58,23.10
2017,09,06,06,59,23.10
2017,09,06,07,00,23.10
2017,09,06,07,01,23.00
2017,09,06,07,02,23.00
2017,09,06,07,03,22.90
2017,09,06,07,04,22.90
2017,09,06,07,05,22.90
2017,09,06,07,06,22.90
2017,09,06,07,07,22.80
2017,09,06,07,08,22.80
2017,09,06,07,09,22.70
2017,09,06,07,10,22.70
2017,09,06,07,11,22.60
2017,09,06,07,12,22.50
2017,09,06,07,13,22.40
2017,09,06,07,14,22.20
2017,09,06,07,15,22.10
2017,09,06,07,16,22.00
2017,09,06,07,17,21.90
2017,09,06,07,18,21.80
2017,09,06,07,19,21.60
2017,09,06,07,20,21.50
2017,09,06,07,21,21.40
2017,09,06,07,22,21.30
2017,09,06,07,23,21.20
2017,09,06,07,24,21.20
2017,09,06,07,25,21.10
2017,09,06,07,26,21.10
2017,09,06,07,27,21.10
2017,09,06,07,28,21.10
2017,09,06,07,29,21.10
2017,09,06,07,30,21.00
2017,09,06,07,31,21.00
2017,09,06,07,32,20.90
2017,09,06,07,33,20.90
2017,09,06,07,34,20.90
2017,09,06,07,35,20.90
2017,09,06,07,36,20.90
2017,09,06,07,37,20.90
2017,09,06,07,38,20.80
2017,09,06,07,39,20.80
2017,09,06,07,40,20.80
2017,09,06,07,41,20.80
2017,09,06,07,42,20.80
2017,09,06,07,43,20.80
2017,09,06,07,44,20.70
2017,09,06,07,45,20.70
2017,09,06,07,46,20.70
2017,09,06,07,47,20.70
2017,09,06,07,48,20.70
2017,09,06,07,49,20.70
2017,09,06,07,50,20.60
2017,09,06,07,51,20.60
2017,09,06,07,52,20.60
2017,09,06,07,53,20.60
2017,09,06,07,54,20.50
2017,09,06,07,55,20.50
2017,09,06,07,56,20.60
2017,09,06,07,57,20.60
2017,09,06,07,58,20.70
2017,09,06,07,59,20.70
2017,09,06,08,00,20.70
2017,09,06,08,01,20.70
2017,09,06,08,02,20.60
2017,09,06,08,03,20.60
2017,09,06,08,04,20.60
2017,09,06,08,05,20.50
2017,09,06,08,06,20.50
2017,09,06,08,07,20.50
2017,09,06,08,08,20.50
2017,09,06,08,09,20.60
2017,09,06,08,10,20.60
2017,09,06,08,11,20.70
2017,09,06,08,12,20.70
2017,09,06,08,13,20.80
2017,09,06,08,14,20.90
2017,09,06,08,15,21.00
2017,09,06,08,16,21.10
2017,09,06,08,17,21.10
2017,09,06,08,18,21.20
2017,09,06,08,19,21.30
2017,09,06,08,20,21.30
2017,09,06,08,21,21.30
2017,09,06,08,22,21.30
2017,09,06,08,23,21.40
2017,09,06,08,24,21.40
2017,09,06,08,25,21.30
2017,09,06,08,26,21.30
2017,09,06,08,27,21.30
2017,09,06,08,28,21.30
2017,09,06,08,29,21.30
2017,09,06,08,30,21.20
2017,09,06,08,31,21.20
2017,09,06,08,32,21.20
2017,09,06,08,33,21.10
2017,09,06,08,34,21.10
2017,09,06,08,35,21.00
2017,09,06,08,36,21.00
2017,09,06,08,37,21.00
2017,09,06,08,38,21.00
2017,09,06,08,39,21.00
2017,09,06,08,40,21.00
2017,09,06,08,41,21.00
2017,09,06,08,42,21.00
2017,09,06,08,43,21.00
2017,09,06,08,44,21.00
2017,09,06,08,45,21.00
2017,09,06,08,46,21.00
2017,09,06,08,47,21.00
2017,09,06,08,48,21.00
2017,09,06,08,49,21.00
2017,09,06,08,50,21.00
2017,09,06,08,51,21.10
2017,09,06,08,52,21.10
2017,09,06,08,53,21.10
2017,09,06,08,54,21.20
2017,09,06,08,55,21.20
2017,09,06,08,56,21.20
2017,09,06,08,57,21.30
2017,09,06,08,58,21.30
2017,09,06,08,59,21.30
2017,09,06,09,00,21.30
2017,09,06,09,01,21.40
2017,09,06,09,02,21.40
2017,09,06,09,03,21.50
2017,09,06,09,04,21.50
2017,09,06,09,05,21.50
2017,09,06,09,06,21.60
2017,09,06,09,07,21.60
2017,09,06,09,08,21.70
2017,09,06,09,09,21.70
2017,09,06,09,10,21.70
2017,09,06,09,11,21.80
2017,09,06,09,12,21.80
2017,09,06,09,13,21.80
2017,09,06,09,14,21.80
2017,09,06,09,15,21.90
2017,09,06,09,16,22.00
2017,09,06,09,17,22.00
2017,09,06,09,18,22.10
2017,09,06,09,19,22.20
2017,09,06,09,20,22.20
2017,09,06,09,21,22.30
2017,09,06,09,22,22.30
2017,09,06,09,23,22.40
2017,09,06,09,24,22.40
2017,09,06,09,25,22.50
2017,09,06,09,26,22.50
2017,09,06,09,27,22.60
2017,09,06,09,28,22.60
2017,09,06,09,29,22.70
2017,09,06,09,30,22.70
2017,09,06,09,31,22.80
2017,09,06,09,32,22.80
2017,09,06,09,33,22.80
2017,09,06,09,34,22.90
2017,09,06,09,35,22.90
2017,09,06,09,36,23.00
2017,09,06,09,37,23.00
2017,09,06,09,38,23.10
2017,09,06,09,39,23.10
2017,09,06,09,40,23.10
2017,09,06,09,41,23.10
2017,09,06,09,42,23.10
2017,09,06,09,43,23.10
2017,09,06,09,44,23.10
2017,09,06,09,45,23.10
2017,09,06,09,46,23.20
2017,09,06,09,47,23.20
2017,09,06,09,48,23.20
2017,09,06,09,49,23.30
2017,09,06,09,50,23.30
2017,09,06,09,51,23.40
2017,09,06,09,52,23.40
2017,09,06,09,53,23.50
2017,09,06,09,54,23.60
2017,09,06,09,55,23.60
2017,09,06,09,56,23.70
2017,09,06,09,57,23.60
2017,09,06,09,58,23.60
2017,09,06,09,59,23.60
2017,09,06,10,00,23.50
2017,09,06,10,01,23.50
2017,09,06,10,02,23.50
2017,09,06,10,03,23.40
2017,09,06,10,04,23.50
2017,09,06,10,05,23.50
2017,09,06,10,06,23.50
2017,09,06,10,07,23.50
2017,09,06,10,08,23.60
2017,09,06,10,09,23.60
2017,09,06,10,10,23.60
2017,09,06,10,11,23.70
2017,09,06,10,12,23.70
2017,09,06,10,13,23.80
2017,09,06,10,14,23.80
2017,09,06,10,15,23.80
2017,09,06,10,16,23.90
2017,09,06,10,17,24.00
2017,09,06,10,18,24.00
2017,09,06,10,19,24.10
2017,09,06,10,20,24.10
2017,09,06,10,21,24.20
2017,09,06,10,22,24.20
2017,09,06,10,23,24.30
2017,09,06,10,24,24.30
2017,09,06,10,25,24.30
2017,09,06,10,26,24.30
2017,09,06,10,27,24.40
2017,09,06,10,28,24.40
2017,09,06,10,29,24.50
2017,09,06,10,30,24.50
2017,09,06,10,31,24.60
2017,09,06,10,32,24.60
2017,09,06,10,33,24.70
2017,09,06,10,34,24.70
2017,09,06,10,35,24.70
2017,09,06,10,36,24.70
2017,09,06,10,37,24.80
2017,09,06,10,38,24.80
2017,09,06,10,39,24.80
2017,09,06,10,40,24.80
2017,09,06,10,41,24.90
2017,09,06,10,42,24.90
2017,09,06,10,43,25.00
2017,09,06,10,44,25.00
2017,09,06,10,45,25.10
2017,09,06,10,46,25.10
2017,09,06,10,47,25.10
2017,09,06,10,48,25.10
2017,09,06,10,49,25.10
2017,09,06,10,50,25.10
2017,09,06,10,51,25.10
2017,09,06,10,52,25.10
2017,09,06,10,53,25.20
2017,09,06,10,54,25.20
2017,09,06,10,55,25.20
2017,09,06,10,56,25.30
2017,09,06,10,57,25.30
2017,09,06,10,58,25.40
2017,09,06,10,59,25.40
2017,09,06,11,00,25.40
2017,09,06,11,01,25.50
2017,09,06,11,02,25.50
2017,09,06,11,03,25.50
2017,09,06,11,04,25.60
2017,09,06,11,05,25.60
2017,09,06,11,06,25.60
2017,09,06,11,07,25.60
2017,09,06,11,08,25.70
2017,09,06,11,09,25.70
2017,09,06,11,10,25.80
2017,09,06,11,11,25.80
2017,09,06,11,12,25.90
2017,09,06,11,13,25.90
2017,09,06,11,14,25.90
2017,09,06,11,15,25.90
2017,09,06,11,16,26.00
2017,09,06,11,17,26.00
2017,09,06,11,18,25.90
2017,09,06,11,19,25.90
2017,09,06,11,20,25.90
2017,09,06,11,21,25.90
2017,09,06,11,22,25.80
2017,09,06,11,23,25.80
2017,09,06,11,24,25.80
2017,09,06,11,25,25.80
2017,09,06,11,26,25.90
2017,09,06,11,27,25.90
2017,09,06,11,28,25.90
2017,09,06,11,29,25.90
2017,09,06,11,30,25.90
2017,09,06,11,31,25.80
2017,09,06,11,32,25.90
2017,09,06,11,33,25.90
2017,09,06,11,34,25.90
2017,09,06,11,35,25.90
2017,09,06,11,36,25.90
2017,09,06,11,37,25.90
2017,09,06,11,38,25.90
2017,09,06,11,39,25.90
2017,09,06,11,40,25.80
2017,09,06,11,41,25.70
2017,09,06,11,42,25.70
2017,09,06,11,43,25.60
2017,09,06,11,44,25.50
2017,09,06,11,45,25.50
2017,09,06,11,46,25.40
2017,09,06,11,47,25.40
2017,09,06,11,48,25.40
2017,09,06,11,49,25.40
2017,09,06,11,50,25.30
2017,09,06,11,51,25.20
2017,09,06,11,52,25.10
2017,09,06,11,53,25.10
2017,09,06,11,54,25.00
2017,09,06,11,55,25.00
2017,09,06,11,56,25.00
2017,09,06,11,57,25.00
2017,09,06,11,58,24.90
2017,09,06,11,59,24.90
2017,09,06,12,00,24.80
2017,09,06,12,01,24.80
2017,09,06,12,02,24.80
2017,09,06,12,03,24.80
2017,09,06,12,04,24.90
2017,09,06,12,05,24.80
2017,09,06,12,06,24.80
2017,09,06,12,07,24.90
2017,09,06,12,08,25.00
2017,09,06,12,09,25.00
2017,09,06,12,10,25.00
2017,09,06,12,11,25.10
2017,09,06,12,12,25.10
2017,09,06,12,13,25.20
2017,09,06,12,14,25.20
2017,09,06,12,15,25.30
2017,09,06,12,16,25.30
2017,09,06,12,17,25.30
2017,09,06,12,18,25.30
2017,09,06,12,19,25.30
2017,09,06,12,20,25.30
2017,09,06,12,21,25.30
2017,09,06,12,22,25.30
2017,09,06,12,23,25.30
2017,09,06,12,24,25.30
2017,09,06,12,25,25.30
2017,09,06,12,26,25.30
2017,09,06,12,27,25.30
2017,09,06,12,28,25.30
2017,09,06,12,29,25.30
2017,09,06,12,30,25.30
2017,09,06,12,31,25.30
2017,09,06,12,32,25.30
2017,09,06,12,33,25.30
2017,09,06,12,34,25.30
2017,09,06,12,35,25.30
2017,09,06,12,36,25.40
2017,09,06,12,37,25.40
2017,09,06,12,38,25.40
2017,09,06,12,39,25.40
2017,09,06,12,40,25.40
2017,09,06,12,41,25.40
2017,09,06,12,42,25.40
2017,09,06,12,43,25.50
2017,09,06,12,44,25.50
2017,09,06,12,45,25.40
2017,09,06,12,46,25.40
2017,09,06,12,47,25.40
2017,09,06,12,48,25.40
2017,09,06,12,49,25.40
2017,09,06,12,50,25.50
2017,09,06,12,51,25.60
2017,09,06,12,52,25.60
2017,09,06,12,53,25.60
2017,09,06,12,54,25.60
2017,09,06,12,55,25.50
2017,09,06,12,56,25.40
2017,09,06,12,57,25.30
2017,09,06,12,58,25.30
2017,09,06,12,59,25.20
2017,09,06,13,00,25.20
2017,09,06,13,01,25.10
2017,09,06,13,02,25.10
2017,09,06,13,03,25.00
2017,09,06,13,04,24.90
2017,09,06,13,05,24.90
2017,09,06,13,06,24.80
2017,09,06,13,07,24.70
2017,09,06,13,08,24.70
2017,09,06,13,09,24.50
2017,09,06,13,10,24.50
2017,09,06,13,11,24.50
2017,09,06,13,12,24.50
2017,09,06,13,13,24.60
2017,09,06,13,14,24.60
2017,09,06,13,15,24.60
2017,09,06,13,16,24.70
2017,09,06,13,17,24.80
2017,09,06,13,18,24.80
2017,09,06,13,19,24.80
2017,09,06,13,20,24.80
2017,09,06,13,21,24.80
2017,09,06,13,22,24.80
2017,09,06,13,23,24.90
2017,09,06,13,24,24.90
2017,09,06,13,25,24.90
2017,09,06,13,26,25.00
2017,09,06,13,27,25.00
2017,09,06,13,28,24.90
2017,09,06,13,29,24.90
2017,09,06,13,30,24.90
2017,09,06,13,31,24.90
2017,09,06,13,32,24.90
2017,09,06,13,33,24.90
2017,09,06,13,34,24.90
2017,09,06,13,35,25.00
2017,09,06,13,36,25.10
2017,09,06,13,37,25.10
2017,09,06,13,38,25.10
2017,09,06,13,39,25.00
2017,09,06,13,40,25.00
2017,09,06,13,41,24.90
2017,09,06,13,42,24.90
2017,09,06,13,43,25.00
2017,09,06,13,44,25.10
2017,09,06,13,45,25.20
2017,09,06,13,46,25.20
2017,09,06,13,47,25.30
2017,09,06,13,48,25.30
2017,09,06,13,49,25.30
2017,09,06,13,50,25.30
2017,09,06,13,51,25.30
2017,09,06,13,52,25.40
2017,09,06,13,53,25.40
2017,09,06,13,54,25.40
2017,09,06,13,55,25.40
2017,09,06,13,56,25.40
2017,09,06,13,57,25.50
2017,09,06,13,58,25.50
2017,09,06,13,59,25.50
2017,09,06,14,00,25.50
2017,09,06,14,01,25.60
2017,09,06,14,02,25.50
2017,09,06,14,03,25.50
2017,09,06,14,04,25.50
2017,09,06,14,05,25.60
2017,09,06,14,06,25.60
2017,09,06,14,07,25.60
2017,09,06,14,08,25.70
2017,09,06,14,09,25.70
2017,09,06,14,10,25.80
2017,09,06,14,11,25.80
2017,09,06,14,12,25.90
2017,09,06,14,13,25.90
2017,09,06,14,14,25.80
2017,09,06,14,15,25.80
2017,09,06,14,16,25.80
2017,09,06,14,17,25.80
2017,09,06,14,18,25.90
2017,09,06,14,19,25.90
2017,09,06,14,20,25.90
2017,09,06,14,21,25.90
2017,09,06,14,22,25.90
2017,09,06,14,23,26.00
2017,09,06,14,24,26.10
2017,09,06,14,25,26.10
2017,09,06,14,26,26.20
2017,09,06,14,27,26.20
2017,09,06,14,28,26.30
2017,09,06,14,29,26.30
2017,09,06,14,30,26.40
2017,09,06,14,31,26.40
2017,09,06,14,32,26.40
2017,09,06,14,33,26.40
2017,09,06,14,34,26.40
2017,09,06,14,35,26.20
2017,09,06,14,36,26.20
2017,09,06,14,37,26.10
2017,09,06,14,38,26.10
2017,09,06,14,39,26.00
2017,09,06,14,40,26.00
2017,09,06,14,41,26.00
2017,09,06,14,42,26.10
2017,09,06,14,43,26.10
2017,09,06,14,44,26.10
2017,09,06,14,45,26.20
2017,09,06,14,46,26.20
2017,09,06,14,47,26.30
2017,09,06,14,48,26.40
2017,09,06,14,49,26.40
2017,09,06,14,50,26.40
2017,09,06,14,51,26.50
2017,09,06,14,52,26.50
2017,09,06,14,53,26.60
2017,09,06,14,54,26.60
2017,09,06,14,55,26.60
2017,09,06,14,56,26.70
2017,09,06,14,57,26.70
2017,09,06,14,58,26.80
2017,09,06,14,59,26.90
2017,09,06,15,00,26.90
2017,09,06,15,01,27.00
2017,09,06,15,02,27.00
2017,09,06,15,03,27.00
2017,09,06,15,04,27.00
2017,09,06,15,05,27.00
2017,09,06,15,06,27.00
2017,09,06,15,07,26.90
2017,09,06,15,08,26.90
2017,09,06,15,09,26.90
2017,09,06,15,10,26.90
2017,09,06,15,11,26.80
2017,09,06,15,12,26.80
2017,09,06,15,13,26.70
2017,09,06,15,14,26.60
2017,09,06,15,15,26.50
2017,09,06,15,16,26.40
2017,09,06,15,17,26.30
2017,09,06,15,18,26.30
2017,09,06,15,19,26.30
2017,09,06,15,20,26.30
2017,09,06,15,21,26.30
2017,09,06,15,22,26.30
2017,09,06,15,23,26.30
2017,09,06,15,24,26.40
2017,09,06,15,25,26.40
2017,09,06,15,26,26.50
2017,09,06,15,27,26.60
2017,09,06,15,28,26.50
2017,09,06,15,29,26.50
2017,09,06,15,30,26.50
2017,09,06,15,31,26.50
2017,09,06,15,32,26.40
2017,09,06,15,33,26.40
2017,09,06,15,34,26.40
2017,09,06,15,35,26.40
2017,09,06,15,36,26.30
2017,09,06,15,37,26.30
2017,09,06,15,38,26.20
2017,09,06,15,39,26.10
2017,09,06,15,40,26.00
2017,09,06,15,41,26.00
2017,09,06,15,42,26.00
2017,09,06,15,43,26.10
2017,09,06,15,44,26.10
2017,09,06,15,45,26.20
2017,09,06,15,46,26.30
2017,09,06,15,47,26.30
2017,09,06,15,48,26.30
2017,09,06,15,49,26.40
2017,09,06,15,50,26.40
2017,09,06,15,51,26.40
2017,09,06,15,52,26.40
2017,09,06,15,53,26.40
2017,09,06,15,54,26.40
2017,09,06,15,55,26.30
2017,09,06,15,56,26.30
2017,09,06,15,57,26.30
2017,09,06,15,58,26.30
2017,09,06,15,59,26.30
2017,09,06,16,00,26.30
2017,09,06,16,01,26.40
2017,09,06,16,02,26.50
2017,09,06,16,03,26.50
2017,09,06,16,04,26.60
2017,09,06,16,05,26.60
2017,09,06,16,06,26.60
2017,09,06,16,07,26.60
2017,09,06,16,08,26.60
2017,09,06,16,09,26.60
2017,09,06,16,10,26.50
2017,09,06,16,11,26.40
2017,09,06,16,12,26.30
2017,09,06,16,13,26.20
2017,09,06,16,14,26.10
2017,09,06,16,15,26.10
2017,09,06,16,16,26.00
2017,09,06,16,17,26.00
2017,09,06,16,18,25.90
2017,09,06,16,19,26.00
2017,09,06,16,20,26.00
2017,09,06,16,21,26.00
2017,09,06,16,22,26.00
2017,09,06,16,23,26.00
2017,09,06,16,24,26.00
2017,09,06,16,25,26.00
2017,09,06,16,26,26.00
2017,09,06,16,27,26.00
2017,09,06,16,28,26.00
2017,09,06,16,29,26.00
2017,09,06,16,30,26.00
2017,09,06,16,31,25.90
2017,09,06,16,32,25.90
2017,09,06,16,33,25.80
2017,09,06,16,34,25.80
2017,09,06,16,35,25.70
2017,09,06,16,36,25.70
2017,09,06,16,37,25.60
2017,09,06,16,38,25.50
2017,09,06,16,39,25.50
2017,09,06,16,40,25.50
2017,09,06,16,41,25.50
2017,09,06,16,42,25.50
2017,09,06,16,43,25.50
2017,09,06,16,44,25.60
2017,09,06,16,45,25.60
2017,09,06,16,46,25.60
2017,09,06,16,47,25.50
2017,09,06,16,48,25.50
2017,09,06,16,49,25.40
2017,09,06,16,50,25.40
2017,09,06,16,51,25.30
2017,09,06,16,52,25.30
2017,09,06,16,53,25.30
2017,09,06,16,54,25.30
2017,09,06,16,55,25.30
2017,09,06,16,56,25.30
2017,09,06,16,57,25.30
2017,09,06,16,58,25.30
2017,09,06,16,59,25.30
2017,09,06,17,00,25.30
2017,09,06,17,01,25.20
2017,09,06,17,02,25.20
2017,09,06,17,03,25.10
2017,09,06,17,04,25.00
2017,09,06,17,05,24.90
2017,09,06,17,06,24.80
2017,09,06,17,07,24.70
2017,09,06,17,08,24.60
2017,09,06,17,09,24.60
2017,09,06,17,10,24.50
2017,09,06,17,11,24.50
2017,09,06,17,12,24.40
2017,09,06,17,13,24.40
2017,09,06,17,14,24.40
2017,09,06,17,15,24.40
2017,09,06,17,16,24.30
2017,09,06,17,17,24.30
2017,09,06,17,18,24.30
2017,09,06,17,19,24.30